FW6597 Weather Reports


time (UTC)temp
F
wind
direction
speed
knots
gust
knots
rain 1hr
in
rain 24hr
in
rain mn
in
humidity
%
barometer
mb
20260906083106 69 0 0.0 1.7 0.00 0.00 0.00 96 1014.0
20260906081606 69 0 0.0 1.7 0.00 0.00 0.00 96 1013.7
20260906080104 69 0 0.0 1.7 0.00 0.00 0.00 96 1013.6
20260906074609 70 0 0.0 0.9 0.00 0.00 0.00 96 1013.7
20260906073103 70 0 0.0 0.9 0.00 0.00 0.00 96 1013.5
20260906071607 70 0 0.0 0.0 0.00 0.00 0.00 96 1013.7
20260906070110 70 0 0.0 1.7 0.00 0.00 0.00 96 1013.7
20260906064603 70 0 0.0 1.7 0.00 0.00 0.00 96 1013.8
20260906063105 70 0 0.0 0.9 0.00 0.00 0.00 96 1013.7
20260906061609 70 0 0.0 0.0 0.00 0.00 0.00 95 1013.9
20260906060136 71 0 0.0 0.9 0.00 0.00 0.00 96 1014.2
20260906054616 71 0 0.0 0.9 0.00 0.00 0.00 96 1014.5
20260906053105 71 0 0.0 0.9 0.00 0.00 0.00 95 1014.9
20260906051605 71 0 0.0 0.9 0.00 0.00 0.00 95 1014.8
20260906050109 71 0 0.9 2.6 0.00 0.00 0.00 95 1015.0
20260906044605 71 232 0.9 1.7 0.00 0.00 0.00 95 1015.1
20260906043107 71 0 0.0 1.7 0.00 0.00 0.00 95 1014.9
20260906041619 71 216 0.9 2.6 0.00 0.00 0.00 95 1014.9
20260906040109 72 0 0.0 2.6 0.00 0.00 0.00 95 1015.0
20260906034621 72 170 0.9 3.5 0.00 0.00 0.00 95 1015.1
20260906033111 72 0 0.0 0.0 0.00 0.00 0.00 95 1015.0
20260906031605 72 0 0.0 0.9 0.00 0.00 0.00 94 1015.0
20260906030106 72 0 0.0 2.6 0.00 0.00 0.00 94 1015.0
20260906024621 72 0 0.0 1.7 0.00 0.00 0.00 94 1014.9
20260906023104 73 0 0.0 0.9 0.00 0.00 0.00 94 1015.0
20260906021607 73 0 0.0 0.9 0.00 0.00 0.00 94 1014.7
20260906020109 73 0 0.0 1.7 0.00 0.00 0.00 94 1014.7
20260906014607 73 181 0.0 2.6 0.00 0.00 0.00 93 1014.6
20260906013102 73 0 0.0 0.0 0.00 0.00 0.00 93 1014.2
20260906011607 73 0 0.0 2.6 0.00 0.00 0.00 93 1014.4
20260906010143 74 0 0.0 2.6 0.00 0.00 0.00 92 1014.3
20260906004617 74 0 0.0 1.7 0.00 0.00 0.00 92 1014.1
20260906003106 74 0 0.0 1.7 0.00 0.00 0.00 92 1013.8
20260906001608 75 267 0.9 2.6 0.00 0.00 0.00 91 1013.8
20260906000108 75 264 0.0 1.7 0.00 0.00 0.00 91 1013.9
20260905234612 76 264 0.0 1.7 0.00 0.00 0.00 90 1013.9
20260905233106 76 0 0.0 1.7 0.00 0.00 0.00 90 1014.0
20260905231620 76 0 0.0 1.7 0.00 0.00 0.00 90 1013.9
20260905230107 76 264 0.0 2.6 0.00 0.00 0.00 90 1013.7
20260905224604 76 261 0.0 0.9 0.00 0.00 0.00 90 1013.8
20260905223103 76 0 0.0 2.6 0.00 0.00 0.00 91 1013.5
20260905221606 75 0 0.0 0.9 0.00 0.00 0.00 91 1013.7
20260905220106 75 260 0.9 2.6 0.00 0.00 0.00 91 1014.0
20260905214608 75 0 0.0 2.6 0.00 0.00 0.00 90 1014.1
20260905213107 75 0 0.0 1.7 0.00 0.00 0.00 90 1014.1
20260905211613 75 254 0.9 1.7 0.00 0.00 0.00 91 1014.2
20260905210120 74 0 0.0 3.5 0.00 0.00 0.00 91 1014.7
20260905204604 74 0 0.0 2.6 0.00 0.00 0.00 90 1014.6
20260905203105 74 251 0.9 2.6 0.00 0.00 0.00 90 1014.6
20260905201608 74 0 0.0 0.9 0.00 0.00 0.00 87 1014.2
20260905200135 75 236 0.0 2.6 0.00 0.00 0.00 86 1015.0
20260905194605 75 0 0.0 0.9 0.00 0.00 0.00 86 1015.1
20260905193102 76 0 0.0 7.0 0.00 0.00 0.00 85 1015.6
20260905191604 78 327 1.7 6.1 0.00 0.00 0.00 85 1015.2
20260905190104 80 24 0.9 7.0 0.00 0.00 0.00 81 1014.9
20260905184611 84 349 2.6 10.4 0.00 0.00 0.00 69 1014.9
20260905183106 87 313 1.7 13.9 0.00 0.00 0.00 61 1015.2
20260905181610 94 5 3.5 8.7 0.00 0.00 0.00 50 1015.1
20260905180104 97 184 2.6 6.1 0.00 0.00 0.00 49 1014.7
20260905174609 97 173 0.9 2.6 0.00 0.00 0.00 51 1014.9
20260905173105 95 0 0.9 4.3 0.00 0.00 0.00 53 1014.8
20260905171607 95 166 1.7 5.2 0.00 0.00 0.00 53 1014.7
20260905170106 95 171 1.7 4.3 0.00 0.00 0.00 52 1015.0
20260905164614 94 257 0.0 4.3 0.00 0.00 0.00 57 1015.3
20260905163106 93 0 0.9 3.5 0.00 0.00 0.00 58 1015.5
20260905161623 92 186 0.0 3.5 0.00 0.00 0.00 59 1015.7
20260905160123 91 184 0.0 5.2 0.00 0.00 0.00 61 1015.8
20260905154606 90 171 0.9 3.5 0.00 0.00 0.00 66 1015.8
20260905153105 88 0 0.9 3.5 0.00 0.00 0.00 68 1016.1
20260905151644 86 205 0.0 1.7 0.00 0.00 0.00 73 1016.2
20260905150109 84 205 0.0 5.2 0.00 0.00 0.00 76 1016.3
20260905144606 82 0 0.0 2.6 0.00 0.00 0.00 81 1016.3
20260905143112 82 285 0.9 2.6 0.00 0.00 0.00 83 1016.4
20260905141613 80 0 0.0 2.6 0.00 0.00 0.00 89 1016.5
20260905140111 78 276 0.9 1.7 0.00 0.00 0.00 92 1016.4
20260905134609 77 0 0.0 1.7 0.00 0.00 0.00 94 1016.5
20260905133103 75 304 0.0 0.9 0.00 0.00 0.00 94 1016.7
20260905131610 74 0 0.0 2.6 0.00 0.00 0.00 95 1016.6
20260905130107 73 304 0.9 2.6 0.00 0.00 0.00 95 1016.7
20260905124608 72 0 0.0 0.0 0.00 0.00 0.00 95 1016.5
20260905123114 72 0 0.0 2.6 0.00 0.00 0.00 95 1016.4
20260905121608 71 0 0.0 1.7 0.00 0.00 0.00 95 1016.5
20260905120111 71 0 0.0 1.7 0.00 0.00 0.00 95 1016.4
20260905114607 71 0 0.0 0.0 0.00 0.00 0.00 94 1016.4
20260905113112 71 0 0.0 2.6 0.00 0.00 0.00 94 1016.1
20260905111606 71 0 0.0 0.9 0.00 0.00 0.00 94 1016.0
20260905110114 71 0 0.0 0.9 0.00 0.00 0.00 94 1015.7
20260905104612 71 0 0.0 1.7 0.00 0.00 0.00 94 1015.7
20260905103106 72 304 0.0 1.7 0.00 0.00 0.00 94 1015.6
20260905101607 72 0 0.0 2.6 0.00 0.00 0.00 94 1015.5
20260905100111 72 0 0.0 0.9 0.00 0.00 0.00 94 1015.4
20260905094603 72 0 0.0 0.9 0.00 0.00 0.00 93 1015.4
20260905093109 72 0 0.0 0.0 0.00 0.00 0.00 93 1015.4
20260905091605 72 0 0.0 0.9 0.00 0.00 0.00 93 1015.4
20260905090112 73 0 0.0 0.0 0.00 0.00 0.00 93 1015.4
20260905084613 73 0 0.0 0.9 0.00 0.00 0.00 93 1015.5